| time (UTC) | temp F | wind direction | speed MPH | gust MPH | rain 1hr in | rain 24hr in | rain mn in | humidity % | barometer mb |
| 20260507010101 | 57 | 238 | 2.0 | 6.0 | 0.00 | 0.20 | 0.20 | 77 | 1011.5 |
| 20260507004548 | 58 | 309 | 2.0 | 8.0 | 0.00 | 0.20 | 0.20 | 77 | 1011.2 |
| 20260507003049 | 58 | 154 | 1.0 | 10.0 | 0.00 | 0.20 | 0.20 | 75 | 1011.8 |
| 20260507001553 | 59 | 152 | 4.0 | 8.0 | 0.00 | 0.20 | 0.20 | 74 | 1011.3 |
| 20260507000051 | 59 | 206 | 5.0 | 13.0 | 0.00 | 0.20 | 0.20 | 73 | 1011.2 |
| 20260506234541 | 60 | 98 | 3.0 | 10.0 | 0.00 | 0.20 | 0.20 | 73 | 1010.9 |
| 20260506233101 | 61 | 252 | 2.0 | 9.0 | 0.00 | 0.20 | 0.20 | 72 | 1010.7 |
| 20260506231550 | 61 | 0 | 3.0 | 7.0 | 0.00 | 0.20 | 0.20 | 72 | 1010.1 |
| 20260506230047 | 62 | 147 | 4.0 | 13.0 | 0.00 | 0.20 | 0.20 | 73 | 1009.9 |
| 20260506224542 | 62 | 242 | 5.0 | 12.0 | 0.00 | 0.20 | 0.20 | 74 | 1009.7 |
| 20260506223051 | 63 | 174 | 4.0 | 12.0 | 0.00 | 0.20 | 0.20 | 75 | 1009.7 |
| 20260506221540 | 63 | 232 | 5.0 | 11.0 | 0.00 | 0.20 | 0.20 | 74 | 1009.5 |
| 20260506220049 | 64 | 180 | 4.0 | 15.0 | 0.00 | 0.20 | 0.20 | 74 | 1009.3 |
| 20260506214546 | 64 | 0 | 2.0 | 7.0 | 0.01 | 0.20 | 0.20 | 77 | 1008.9 |
| 20260506213042 | 64 | 153 | 5.0 | 12.0 | 0.01 | 0.20 | 0.20 | 78 | 1008.5 |
| 20260506211541 | 64 | 198 | 3.0 | 7.0 | 0.01 | 0.20 | 0.20 | 82 | 1008.4 |
| 20260506210048 | 64 | 360 | 3.0 | 8.0 | 0.01 | 0.20 | 0.20 | 83 | 1008.2 |
| 20260506204549 | 64 | 213 | 4.0 | 11.0 | 0.00 | 0.19 | 0.19 | 83 | 1008.0 |
| 20260506203048 | 64 | 72 | 5.0 | 13.0 | 0.00 | 0.19 | 0.19 | 83 | 1008.0 |
| 20260506201546 | 66 | 21 | 3.0 | 8.0 | 0.00 | 0.19 | 0.19 | 82 | 1007.8 |
| 20260506200046 | 67 | 0 | 0.0 | 2.0 | 0.00 | 0.19 | 0.19 | 85 | 1007.5 |
| 20260506194553 | 68 | 10 | 0.0 | 3.0 | 0.00 | 0.19 | 0.19 | 80 | 1007.5 |
| 20260506193046 | 68 | 5 | 0.0 | 3.0 | 0.00 | 0.19 | 0.19 | 79 | 1007.4 |
| 20260506191546 | 68 | 0 | 2.0 | 4.0 | 0.00 | 0.19 | 0.19 | 80 | 1007.5 |
| 20260506190046 | 67 | 12 | 1.0 | 3.0 | 0.00 | 0.19 | 0.19 | 82 | 1007.6 |
| 20260506184544 | 67 | 0 | 1.0 | 3.0 | 0.00 | 0.19 | 0.19 | 80 | 1007.6 |
| 20260506183050 | 66 | 0 | 0.0 | 3.0 | 0.00 | 0.19 | 0.19 | 84 | 1007.6 |
| 20260506181549 | 65 | 269 | 1.0 | 4.0 | 0.00 | 0.19 | 0.19 | 85 | 1007.9 |
| 20260506180055 | 64 | 0 | 0.0 | 2.0 | 0.00 | 0.19 | 0.19 | 86 | 1007.9 |
| 20260506174550 | 64 | 49 | 1.0 | 3.0 | 0.00 | 0.19 | 0.19 | 87 | 1007.9 |
| 20260506173103 | 63 | 0 | 0.0 | 3.0 | 0.00 | 0.19 | 0.19 | 87 | 1008.0 |
| 20260506171551 | 63 | 235 | 0.0 | 4.0 | 0.00 | 0.19 | 0.19 | 87 | 1007.8 |
| 20260506170058 | 63 | 0 | 0.0 | 3.0 | 0.00 | 0.19 | 0.19 | 88 | 1008.0 |
| 20260506164606 | 63 | 271 | 0.0 | 2.0 | 0.00 | 0.19 | 0.19 | 86 | 1007.6 |
| 20260506163047 | 63 | 0 | 0.0 | 3.0 | 0.00 | 0.19 | 0.19 | 86 | 1007.7 |
| 20260506161546 | 63 | 217 | 1.0 | 5.0 | 0.00 | 0.19 | 0.19 | 84 | 1007.6 |
| 20260506160050 | 63 | 181 | 2.0 | 6.0 | 0.00 | 0.19 | 0.19 | 85 | 1007.5 |
| 20260506154551 | 63 | 228 | 2.0 | 8.0 | 0.00 | 0.19 | 0.19 | 85 | 1007.5 |
| 20260506153045 | 62 | 225 | 2.0 | 6.0 | 0.00 | 0.19 | 0.19 | 87 | 1007.5 |
| 20260506151549 | 62 | 213 | 2.0 | 7.0 | 0.00 | 0.19 | 0.19 | 88 | 1007.6 |
| 20260506150051 | 61 | 229 | 3.0 | 8.0 | 0.01 | 0.19 | 0.19 | 88 | 1007.4 |
| 20260506144549 | 61 | 230 | 5.0 | 9.0 | 0.03 | 0.19 | 0.19 | 89 | 1007.8 |
| 20260506143046 | 60 | 167 | 2.0 | 6.0 | 0.07 | 0.19 | 0.19 | 90 | 1007.4 |
| 20260506141606 | 60 | 172 | 0.0 | 5.0 | 0.08 | 0.19 | 0.19 | 91 | 1007.5 |
| 20260506140048 | 59 | 149 | 0.0 | 4.0 | 0.07 | 0.18 | 0.18 | 90 | 1007.8 |
| 20260506134545 | 59 | 146 | 0.0 | 7.0 | 0.08 | 0.16 | 0.16 | 90 | 1008.1 |
| 20260506133046 | 59 | 233 | 3.0 | 5.0 | 0.06 | 0.12 | 0.12 | 89 | 1008.1 |
| 20260506131548 | 59 | 0 | 1.0 | 4.0 | 0.07 | 0.11 | 0.11 | 89 | 1007.8 |
| 20260506130048 | 59 | 161 | 1.0 | 4.0 | 0.08 | 0.11 | 0.11 | 89 | 1007.7 |
| 20260506124548 | 59 | 175 | 0.0 | 2.0 | 0.05 | 0.08 | 0.08 | 89 | 1007.9 |
| 20260506123049 | 59 | 217 | 0.0 | 2.0 | 0.04 | 0.06 | 0.06 | 88 | 1008.0 |
| 20260506121555 | 59 | 0 | 1.0 | 3.0 | 0.03 | 0.04 | 0.04 | 87 | 1008.0 |
| 20260506120107 | 59 | 181 | 1.0 | 5.0 | 0.02 | 0.03 | 0.03 | 87 | 1007.9 |
| 20260506114544 | 59 | 199 | 1.0 | 3.0 | 0.03 | 0.03 | 0.03 | 86 | 1007.9 |
| 20260506113048 | 60 | 0 | 0.0 | 1.0 | 0.02 | 0.02 | 0.02 | 82 | 1008.0 |
| 20260506111549 | 60 | 0 | 1.0 | 3.0 | 0.01 | 0.01 | 0.01 | 81 | 1008.1 |
| 20260506110044 | 61 | 0 | 0.0 | 1.0 | 0.01 | 0.01 | 0.01 | 77 | 1008.1 |
| 20260506104547 | 62 | 209 | 0.0 | 2.0 | 0.00 | 0.00 | 0.00 | 74 | 1007.8 |
| 20260506103046 | 62 | 186 | 0.0 | 7.0 | 0.00 | 0.00 | 0.00 | 70 | 1007.5 |
| 20260506101549 | 61 | 211 | 0.0 | 2.0 | 0.00 | 0.00 | 0.00 | 70 | 1007.0 |
| 20260506100046 | 61 | 0 | 0.0 | 0.0 | 0.00 | 0.00 | 0.00 | 69 | 1006.8 |
| 20260506094549 | 62 | 0 | 0.0 | 0.0 | 0.00 | 0.00 | 0.00 | 68 | 1006.7 |
| 20260506093049 | 61 | 209 | 0.0 | 3.0 | 0.00 | 0.00 | 0.00 | 67 | 1006.7 |
| 20260506091547 | 62 | 0 | 0.0 | 2.0 | 0.00 | 0.00 | 0.00 | 67 | 1006.7 |
| 20260506090052 | 62 | 211 | 0.0 | 2.0 | 0.00 | 0.00 | 0.00 | 66 | 1007.0 |
| 20260506084552 | 62 | 211 | 0.0 | 2.0 | 0.00 | 0.00 | 0.00 | 66 | 1007.0 |
| 20260506083050 | 62 | 211 | 1.0 | 3.0 | 0.00 | 0.00 | 0.00 | 66 | 1007.2 |
| 20260506081554 | 62 | 0 | 1.0 | 3.0 | 0.00 | 0.00 | 0.00 | 64 | 1007.4 |
| 20260506073057 | 63 | 0 | 0.0 | 2.0 | 0.00 | 0.00 | 0.00 | 63 | 1007.1 |
| 20260506071553 | 63 | 211 | 0.0 | 3.0 | 0.00 | 0.00 | 0.00 | 61 | 1007.3 |
| 20260506070108 | 64 | 0 | 0.0 | 0.0 | 0.00 | 0.00 | 0.00 | 60 | 1007.4 |
| 20260506061549 | 65 | 0 | 0.0 | 1.0 | 0.00 | 0.00 | 0.00 | 58 | 1008.0 |
| 20260506044555 | 68 | 150 | 1.0 | 3.0 | 0.00 | 0.00 | 0.00 | 50 | 1008.9 |
| 20260506043050 | 69 | 0 | 0.0 | 1.0 | 0.00 | 0.00 | 0.00 | 48 | 1008.8 |
| 20260506041554 | 69 | 0 | 1.0 | 5.0 | 0.00 | 0.00 | 0.00 | 45 | 1008.7 |
| 20260506040050 | 69 | 164 | 1.0 | 5.0 | 0.00 | 0.00 | 0.00 | 44 | 1008.8 |
| 20260506034543 | 70 | 127 | 0.0 | 6.0 | 0.00 | 0.00 | 0.00 | 43 | 1008.8 |
| 20260506033046 | 70 | 161 | 2.0 | 7.0 | 0.00 | 0.00 | 0.00 | 42 | 1008.7 |
| 20260506031558 | 70 | 159 | 3.0 | 10.0 | 0.00 | 0.00 | 0.00 | 42 | 1008.8 |
| 20260506030108 | 70 | 171 | 4.0 | 8.0 | 0.00 | 0.00 | 0.00 | 43 | 1008.7 |
| 20260506024547 | 70 | 147 | 2.0 | 5.0 | 0.00 | 0.00 | 0.00 | 44 | 1008.7 |
| 20260506023049 | 69 | 171 | 2.0 | 7.0 | 0.00 | 0.00 | 0.00 | 44 | 1008.8 |
| 20260506021543 | 69 | 171 | 2.0 | 8.0 | 0.00 | 0.00 | 0.00 | 46 | 1008.8 |
| 20260506020041 | 67 | 162 | 1.0 | 4.0 | 0.00 | 0.00 | 0.00 | 50 | 1008.7 |
| 20260506014542 | 67 | 159 | 2.0 | 6.0 | 0.00 | 0.00 | 0.00 | 52 | 1008.7 |
| 20260506013050 | 67 | 146 | 2.0 | 6.0 | 0.00 | 0.00 | 0.00 | 54 | 1008.7 |
| 20260506011555 | 68 | 169 | 1.0 | 5.0 | 0.00 | 0.00 | 0.00 | 51 | 1008.6 |